Regional Weather Roundup
Issued by NWS Charleston, SC

Current Version | Previous Version | Graphics & Text | Print | Product List | Glossary On
Versions: 1 2 3 4 5 6 7 8 9 10 11 12 13 14 15 16 17 18 19 20 21 22 23 24 25 26 27 28 29 30 31 32 33 34 35 36 37 38 39 40 41 42 43 44 45 46 47 48 49 50
341
ASUS42 KCHS 181327
RWRCHS

REGIONAL WEATHER ROUNDUP
NATIONAL WEATHER SERVICE CHARLESTON SC
900 AM EDT WED OCT 18 2017

NOTE: "FAIR" INDICATES FEW OR NO CLOUDS BELOW 12,000 FEET WITH NO
SIGNIFICANT WEATHER AND/OR OBSTRUCTIONS TO VISIBILITY.

NOT ALL STATIONS ARE QUALITY CONTROLLED. USE DATA WITH CAUTION...
ESPECIALLY DEWPOINT OBSERVATIONS.

SCZ027-030-031-034>040-042>050-181400-
...SOUTHEAST SOUTH CAROLINA...

CITY           SKY/WX    TMP DP  RH WIND       PRES   REMARKS
N CHARLESTON   SUNNY     55  47  74 NE13      30.30R
WATERFRONT PRK   N/A     58  50  74 N13       30.14R
JOHNS ISLAND   FAIR      59  48  67 N12       30.30R
PINOPOLIS        N/A     55  52  88 NE16      30.22R
MONCKS CORNER  FAIR      54  45  71 NE12      30.32R
SUMMERVILLE    FAIR      52  50  93 NE5       30.33R
BEAUFORT MCAS  SUNNY     58  47  66 MISG      30.30R
BEAUFORT ARPT  FAIR      59  46  63 NE21      30.30R
HILTON HEAD IS SUNNY     61  46  59 NE12G21     N/A
WALTERBORO     SUNNY     54  45  71 N5        30.33R
ALLENDALE      NOT AVBL

...SOUTHERN MIDLANDS AND PEE DEE...

CITY           SKY/WX    TMP DP  RH WIND       PRES   REMARKS
GEORGETOWN     FAIR      52  50  93 N9        30.32R
KINGSTREE      FAIR      50  45  81 N5        30.35R
ORANGEBURG     SUNNY     51  42  71 NE8       30.33S
BARNWELL         N/A     54  45  71 NE8       30.34R
AIKEN          FAIR      48  43  81 NE8       30.37S
MANNING        HAZE      50  45  81 MISG      30.34R VSB<1/4
COLUMBIA       MOSUNNY   52  45  77 NE5       30.35R
SUMTER         SUNNY     50  43  76 NE8       30.32S
FLORENCE       SUNNY     49  43  80 NE8       30.36R
MYRTLE BEACH   SUNNY     57  48  72 NE16      30.33R
N MYRTLE BEACH SUNNY     54  47  77 N13       30.32R

$$

GAZ063-065-086>088-099>101-113>116-118-119-134>141-150-181400-
...SOUTHEAST GEORGIA...

CITY           SKY/WX    TMP DP  RH WIND       PRES   REMARKS
SAVANNAH ARPT  SUNNY     57  47  69 NE12G21   30.28R
HUNTER AAF     SUNNY     58  48  69 NE9       30.25R
FORT STEWART   SUNNY     57  46  65 NE12      30.26R
STATESBORO     SUNNY     56  42  60 NE6       30.31R
SYLVANIA       SUNNY     55  47  73 E7        30.32R
CLAXTON        FAIR      58  46  65 N7        30.29R

...CSRA...CENTRAL AND FAR SOUTHEAST GEORGIA...

CITY           SKY/WX    TMP DP  RH WIND       PRES   REMARKS
THOMSON        SUNNY     48  45  88 CALM      30.40S
AUGUSTA-BUSH   SUNNY     51  46  83 N3        30.34R
AUGUSTA-DANIEL SUNNY     54  41  61 NE6       30.34R
SWAINSBORO     FAIR      52  45  76 MISG      30.33R
VIDALIA        SUNNY     55  46  71 NE7       30.30R
EASTMAN        FAIR      56  34  42 E9        30.33S
HAZLEHURST     FAIR      56  37  48 NE8       30.28R
ALMA           SUNNY     58  44  60 NE7       30.26R
WAYCROSS       SUNNY     60  46  58 NE13      30.26R
JESUP          FAIR      57  46  67 NE6       30.26
BAXLEY         FAIR      55  43  62 NE13      30.27R
BRUNSWICK      SUNNY     63  54  72 NE9       30.24S
SAINT SIMONS   PTSUNNY   67  61  81 NE15G23   30.22R

$$

SCZ027-028-034-036>038-045-046-048>050-GAZ119-141-181400-
...LAKE AND SUPPLEMENTAL COASTAL OBSERVATIONS...

STATION/POSITION TIME  TEMP    WIND        PRES    WAVE   SWELL
                       AIR SEA DIR/SP/G            HT/PER HT/PER/DIR
                 (UTC) (F)     (DEG/KT/KT) (MB)    (FT/S) (FT/S/D)
WINYAH BAY       1230   54      10/  8     1026.0S
LAKE MURRAY      1220   51      CALM  /  2 1027.1
ACE BASIN NERRS  1245   55      20/  5     1026.0R
FORT PULASKI     1300   62 74   30/ 14/ 16 1025.3
SAPELO ISLAND    1300   65      20/ 11     1024.0

$$

ANZ835-935-AMZ111-154-330-350-352-354-370-450-454-472-181400-
...C-MAN AND BUOY OBSERVATIONS...

STATION/POSITION TIME  TEMP    WIND        PRES    WAVE   SWELL
                       AIR SEA DIR/SP/G            HT/PER HT/PER/DIR
                 (UTC) (F)     (DEG/KT/KT) (MB)    (FT/S) (FT/S/D)
BUOY 41004       1300   71 80   30/ 19/ 25 1023.5
BUOY 41008       1250   71 78   50/ 21/ 27 1022.3R   8/10   3/130/10
FOLLY BEACH CMAN 1300   60      10/ 14/ 16 1025.9R
CAPERS NEARSHORE 1308   59 74   30/ 17/ 25 1024.8R
FRIPP NEARSHORE  1308   65      30/ 17/ 23   N/A


STATION/POSITION TIME  TEMP    WIND        PRES    WAVE   SWELL
                       AIR SEA DIR/SP/G            HT/PER HT/PER/DIR
                 (UTC) (F)     (DEG/KT/KT) (MB)    (FT/S) (FT/S/D)
5E ST. MARYS GA  1300      78                N/A     7/11   2/ 90/11
FRYING PAN BUOY  1300   69 76   30/ 19/ 25 1024.5
BUOY 41025       1250   68 81   20/ 19/ 23 1025.4R   6/ 9   3/100/ 9
CAPE LOOKOUT NC  1300   62     360/ 12/ 14 1026.0R
BUOY 41002       1250   74 80   50/ 21/ 27 1020.0R   9/ 9
BUOY 41010       NOT AVBL
ST AUGUSTINE FL  1300   77 79   50/ 23/ 25 1020.8R


$$




USA.gov is the U.S. government's official web portal to all federal, state and local government web resources and services.